Location: Brunembert
(50.7122°N, 1.8935°E)
Time: 03:25:56
(UTC+00:00)

SPOT 3 Rocket - Pass Details

Date: 22 April 2021
Orbit: 778 x 795 km, 98.7° (Epoch: 06 May)

Event Time Altitude Azimuth Distance (km) Brightness Sun altitude
Exits shadow 19:40:39 - 140° (SE) 2,676 5.7 -6.8°
Reaches altitude 10° 19:41:30 10° 137° (SE) 2,348 5.4 -6.9°
Maximum altitude 19:46:25 45° 66° (ENE) 1,060 4.0 -7.6°
Drops below altitude 10° 19:51:21 10° 355° (N) 2,353 6.6 -8.2°
Sets 19:53:44 0° 349° (N) 3,283 7.5 -8.5°
